Location: Molalla
(45.1473°N, 122.5770°W)
Time: 04:46:11
(UTC-07:00)

Envisat - Visible Passes

Search period start: 19 October 2019 00:00
Search period end: 29 October 2019 00:00
Orbit: 764 x 766 km, 98.1° (Epoch: 19 October)

Date Brightness Start Highest point End Pass type
(mag) Time Alt. Az. Time Alt. Az. Time Alt. Az.
19 Oct 6.7 06:36:56 10° ENE 06:37:57 11° E 06:38:57 10° E visible
19 Oct 3.6 19:29:12 10° S 19:34:13 62° W 19:39:16 10° NNW visible
20 Oct 3.0 18:52:27 10° SSE 18:57:27 63° ENE 19:02:29 10° N visible
20 Oct 5.8 20:33:37 10° SW 20:36:55 17° W 20:40:14 10° NW visible
21 Oct 6.1 07:00:14 10° NE 07:03:48 19° E 07:07:20 10° SE visible
21 Oct 4.6 19:55:10 10° SSW 19:59:49 36° W 20:04:30 10° NNW visible
22 Oct 3.2 19:17:51 10° S 19:22:56 77° WSW 19:28:02 10° NNW visible
23 Oct 3.2 18:41:20 10° SE 18:46:14 51° ENE 18:51:09 10° N visible
23 Oct 5.5 20:21:42 10° SW 20:25:32 21° W 20:29:25 10° NW visible
24 Oct 6.2 06:49:32 10° NE 06:52:24 15° E 06:55:15 10° ESE visible
24 Oct 4.2 19:43:39 10° S 19:48:30 45° W 19:53:22 10° NNW visible
25 Oct 3.0 19:06:35 10° SSE 19:11:40 85° ENE 19:16:46 10° NNW visible
25 Oct 6.1 20:49:17 10° WSW 20:51:21 12° W 20:53:26 10° WNW visible
26 Oct 3.4 18:30:18 10° SE 18:35:01 41° ENE 18:39:46 10° N visible
26 Oct 5.1 20:09:55 10° SSW 20:14:10 27° W 20:18:26 10° NW visible
27 Oct 6.5 06:39:12 10° ENE 06:40:59 12° E 06:42:46 10° ESE visible
27 Oct 3.7 19:32:13 10° S 19:37:11 57° W 19:42:12 10° NNW visible
28 Oct 2.9 18:55:23 10° SSE 19:00:25 69° ENE 19:05:29 10° N visible
28 Oct 5.9 20:36:55 10° SW 20:39:57 16° W 20:42:59 10° NW visible
